This demonstration page uses our WeatherBlox Daily Observations layout. Learn more.

Left ArrowRight Arrow

Hourly Observations for March 31, 2018

Temp ( °F °C ) Dew Point ( °F °C ) Humidity (%) Winds ( mph kmh ) Pressure ( in mb ) Visibility ( mi km ) Precip ( " mm )
12:51 am 00:51 Clear 58 14.4 19 -7.2 22 22 N 7 11 29.95 1014 10 16 0.00 0.00
1:51 am 01:51 Clear 56 13.3 20 -6.7 24 24 S 7 11 29.96 1015 10 16 0.00 0.00
2:51 am 02:51 Clear 52 11.1 20 -6.7 28 28 E 6 9 29.96 1014 10 16 0.00 0.00
3:51 am 03:51 Clear 51 10.6 20 -6.7 29 29 E 5 7 29.96 1015 10 16 0.00 0.00
4:51 am 04:51 Clear 50 10 20 -6.7 30 30 SE 5 7 29.97 1015 10 16 0.00 0.00
5:51 am 05:51 Clear 46 7.8 20 -6.7 35 35 Calm 29.99 1016 10 16 0.00 0.00
6:51 am 06:51 Sunny 48 8.9 21 -6.1 34 34 Calm 30.01 1016 10 16 0.00 0.00
7:51 am 07:51 Sunny 54 12.2 22 -5.6 29 29 Calm 30.02 1017 10 16 0.00 0.00
8:51 am 08:51 Sunny 63 17.2 23 -5 22 22 SSE 3 6 30.02 1017 10 16 0.00 0.00
9:51 am 09:51 Sunny 70 21.1 20 -6.7 15 15 Calm 30.02 1017 10 16 0.00 0.00
10:51 am 10:51 Sunny 72 22.2 21 -6.1 15 15 undefined N/A 30.01 1016 10 16 0.00 0.00
11:51 am 11:51 Sunny 76 24.4 20 -6.7 12 12 VRB 6 9 29.98 1015 10 16 0.00 0.00
12:51 pm 12:51 Sunny 79 26.1 17 -8.3 10 10 undefined N/A 29.94 1014 10 16 0.00 0.00
1:51 pm 13:51 Sunny 81 27.2 15 -9.4 8 8 W 7 11 29.91 1013 10 16 0.00 0.00
2:51 pm 14:51 Sunny 83 28.3 14 -10 7 7 W 9 15 29.88 1012 10 16 0.00 0.00
3:51 pm 15:51 Sunny 86 30 16 -8.9 7 7 N 6 9 29.85 1011 10 16 0.00 0.00
4:51 pm 16:51 Sunny 83 28.3 17 -8.3 8 8 SW 7 11 29.85 1011 10 16 0.00 0.00
5:51 pm 17:51 Sunny 81 27.2 18 -7.8 9 9 NW 6 9 29.85 1011 10 16 0.00 0.00
6:51 pm 18:51 Clear 74 23.3 18 -7.8 12 12 WNW 6 9 29.86 1011 10 16 0.00 0.00
7:51 pm 19:51 Clear 70 21.1 17 -8.3 13 13 NW 7 11 29.88 1012 10 16 0.00 0.00
8:51 pm 20:51 Clear 71 21.7 17 -8.3 13 13 NW 10 17 29.87 1012 10 16 0.00 0.00
9:51 pm 21:51 Clear 66 18.9 17 -8.3 15 15 WNW 7 11 29.88 1012 10 16 0.00 0.00
10:51 pm 22:51 Clear 67 19.4 17 -8.3 15 15 NW 9 15 29.86 1011 10 16 0.00 0.00
11:51 pm 23:51 Clear 68 20 16 -8.9 13 13 NW 12 19 29.86 1011 10 16 0.00 0.00

Powered by AerisWeather